Location: Newark
(59.4564°N, 26.6917°E)
Time: 16:04:55
(UTC+00:00)

SR - Pass Details

Date: 23 November 2019
Orbit: 573 x 882 km, 66.7° (Epoch: 12 December)

Event Time Altitude Azimuth Distance (km) Brightness Sun altitude
Rises 19:05:21 0° 308° (NW) 3,465 ? -40.2°
Reaches altitude 10° 19:07:50 10° 309° (NW) 2,541 ? -40.5°
Enters shadow 19:10:08 25° 310° (NW) 1,720 ? -40.7°
Maximum altitude 19:13:49 88° 39° (NE) 892 - -41.1°
Drops below altitude 10° 19:19:43 10° 131° (SE) 2,511 - -41.7°
Sets 19:22:10 0° 131° (SE) 3,421 - -41.9°
